Saint Louis, MO

1:28 PM CST on December 05, 2016 (GMT -0600)
Lambert-Saint Louis International

Weather History for KSTL - August, 2013

Change the Weather History Date:

Tuesday, August 27, 2013

  Actual Average Record
Temperature  
Mean Temperature 87 °F 77 °F  
Max Temperature 97 °F 87 °F 102 °F (1881)
Min Temperature 77 °F 68 °F 51 °F (1968)
Degree Days  
Heating Degree Days 0 0  
Month to date heating degree days 0 0  
Since 1 June heating degree days 1 5  
Since 1 July heating degree days 0 0  
Cooling Degree Days 22 12  
Month to date cooling degree days 337 378  
Year to date cooling degree days 1291 1353  
Since 1 June cooling degree days 1080 1179  
Growing Degree Days 37 (Base 50)    
Moisture  
Dew Point 67 °F    
Average Humidity 55    
Maximum Humidity 76    
Minimum Humidity 33    
Precipitation  
Precipitation 0.00 in 0.09 in 1.72 in (1874)
Month to date precipitation 1.01 2.62  
Year to date precipitation 34.43 27.38  
Snow  
Snow 0.00 in 0.00 in 0.00 in (2015)
Month to date snowfall 0.0 0.0  
Since 1 June snowfall 0.0 0.0  
Since 1 July snowfall 0.0 0.0  
Snow Depth 0.00 in    
Sea Level Pressure  
Sea Level Pressure 30.01 in    
Wind  
Wind Speed 9 mph (WSW)    
Max Wind Speed 16 mph    
Max Gust Speed 22 mph    
Visibility 10 miles    
Events      
T = Trace of Precipitation, MM = Missing Value Source: NWS Daily Summary

Daily Weather History Graph

Daily Weather History Graph

Search for Another Location

Airport or City:

Trip Planner

Search our weather history database for the weather conditions in past years. The results will help you decide how hot, cold, wet, or windy it might be!

Date:

Astronomy

Aug. 27, 2013 Rise Set
Actual Time 6:26 AM CDT 7:38 PM CDT
Civil Twilight 5:58 AM CDT 8:06 PM CDT
Nautical Twilight 5:25 AM CDT 8:39 PM CDT
Astronomical Twilight 4:51 AM CDT 9:13 PM CDT
Moon 11:36 PM CDT (8/27) 1:19 PM CDT (8/27)
Length of Visible Light 14h 07m
Length of Day
13h 12m
Waning Gibbous, 57% of the Moon is Illuminated
Aug 27
Waning Gibbous
Aug 28
Last Quarter
Sep 5
New
Sep 12
First Quarter
Sep 19
Full

Hourly Weather History & Observations

Time (CDT) Temp. Heat Index Dew Point Humidity Pressure Visibility Wind Dir Wind Speed Gust Speed Precip Events Conditions
12:51 AM 82.0 °F 85.9 °F 70.0 °F 67% 30.05 in 10.0 mi SW 12.7 mph - N/A   Partly Cloudy
1:51 AM 81.0 °F 84.4 °F 70.0 °F 69% 30.04 in 10.0 mi SW 8.1 mph - N/A   Partly Cloudy
2:51 AM 80.1 °F 83.2 °F 70.0 °F 71% 30.03 in 10.0 mi SW 9.2 mph - N/A   Partly Cloudy
3:51 AM 79.0 °F - 70.0 °F 74% 30.04 in 10.0 mi WSW 5.8 mph - N/A   Clear
4:51 AM 78.1 °F - 70.0 °F 76% 30.03 in 10.0 mi WSW 6.9 mph - N/A   Clear
5:51 AM 78.1 °F - 69.1 °F 74% 30.03 in 10.0 mi WSW 6.9 mph - N/A   Partly Cloudy
6:51 AM 77.0 °F - 69.1 °F 76% 30.05 in 9.0 mi West 4.6 mph - N/A   Mostly Cloudy
7:51 AM 79.0 °F - 69.1 °F 72% 30.05 in 9.0 mi WSW 9.2 mph - N/A   Mostly Cloudy
8:51 AM 82.9 °F 87.0 °F 70.0 °F 65% 30.06 in 10.0 mi WSW 8.1 mph - N/A   Mostly Cloudy
9:51 AM 86.0 °F 91.5 °F 71.1 °F 61% 30.06 in 10.0 mi West 6.9 mph - N/A   Mostly Cloudy
10:51 AM 89.1 °F 95.0 °F 71.1 °F 55% 30.05 in 10.0 mi West 8.1 mph - N/A   Mostly Cloudy
11:51 AM 90.0 °F 93.6 °F 68.0 °F 48% 30.04 in 10.0 mi WSW 8.1 mph - N/A   Mostly Cloudy
12:51 PM 93.9 °F 97.5 °F 66.9 °F 41% 30.02 in 10.0 mi WSW 8.1 mph - N/A   Mostly Cloudy
1:51 PM 95.0 °F 97.9 °F 66.0 °F 38% 30.00 in 10.0 mi SW 12.7 mph 17.3 mph N/A   Mostly Cloudy
2:51 PM 96.1 °F 97.3 °F 63.0 °F 33% 29.98 in 10.0 mi West 12.7 mph 21.9 mph N/A   Mostly Cloudy
3:51 PM 93.0 °F 94.6 °F 64.0 °F 38% 29.97 in 10.0 mi SW 16.1 mph 20.7 mph N/A   Mostly Cloudy
4:51 PM 93.9 °F 94.8 °F 62.1 °F 35% 29.96 in 10.0 mi West 11.5 mph - N/A   Mostly Cloudy
5:51 PM 91.9 °F 92.9 °F 63.0 °F 38% 29.96 in 10.0 mi WSW 9.2 mph - N/A   Mostly Cloudy
6:51 PM 91.0 °F 92.6 °F 64.0 °F 41% 29.96 in 10.0 mi WSW 6.9 mph - N/A   Mostly Cloudy
7:51 PM 89.1 °F 91.0 °F 64.9 °F 45% 29.96 in 10.0 mi SW 8.1 mph - N/A   Mostly Cloudy
8:51 PM 86.0 °F 88.2 °F 66.0 °F 51% 29.97 in 10.0 mi SW 8.1 mph - N/A   Scattered Clouds
9:51 PM 84.9 °F 87.1 °F 66.0 °F 53% 29.98 in 10.0 mi SW 8.1 mph - N/A   Scattered Clouds
10:51 PM 82.9 °F 84.6 °F 64.9 °F 54% 29.99 in 10.0 mi WSW 9.2 mph - N/A   Partly Cloudy
11:51 PM 82.0 °F 84.1 °F 66.0 °F 58% 29.98 in 10.0 mi SW 6.9 mph - N/A   Clear